{"data":{"norad_id":48321,"intl_designator":"2021-036AX","name":"STARLINK-2457","alt_names":[],"object_type":"PAYLOAD","status":"ACTIVE","operator":null,"country":"US","launch_date":"2021-04-29","launch_site_code":"AFETR","launch_vehicle":null,"mission":null,"orbit_class":"UNKNOWN","rcs_meters":null,"size_class":null,"mass_kg":null,"dimensions":null,"purposes":["comms"],"wikipedia_slug":null,"has_3d_model":false,"image_url":null,"decayed_at":null,"tle_current":{"epoch":"2026-05-25T03:55:53.481216Z","epoch_age_seconds":67651,"freshness":"FRESH","line1":"1 48321U 21036AX  26145.16381344 -.00000007  00000+0  11546-4 0  9996","line2":"2 48321  53.1602 105.3870 0001167  84.1428 275.9706 15.31702101279750","mean_motion":15.31702101,"eccentricity":0.0001167,"inclination_deg":53.1602,"raan_deg":105.387,"arg_perigee_deg":84.1428,"mean_anomaly_deg":275.9706,"bstar":1.1546e-5,"rev_number":27975,"period_min":94.013059005395,"perigee_km":469.93446904668,"apogee_km":471.53299547559,"semimajor_km":6848.8707322611,"source":"CELESTRAK","updated_at":"2026-05-25T13:38:16.681562Z"}}}